Date String (YYYY-MM-DD hh:mm:ss) UTC,Instrument flags,Ambient pressure (hPa),Sample flow (lpm),Bypass flow (lpm),Sample temperature (°C),Ambient temperature (°C),ASC tube jacket temperature (°C),LED temperature (°C),Box temperature (°C),Sample RH (%),Span deviation,Mass concentration (μg/m³),Mass concentration (μg/m³),Mass concentration (μg/m³)
DateTimeUTC,F1_M11,P_M11,Q1_M11,Q2_M11,T1_M11,T2_M11,T3_M11,T4_M11,T5_M11,U1_M11,ZSPAN_M11,X0_M11,X2_M11,X1_M11
2023-02-09 02:00:00,,0822.4,5.00,0.00,22.1,22.4,00.0,30.9,24.2,15.3,0000.0,0003.19,0001.51,0000.73
2023-02-09 02:01:00,,0822.4,5.00,0.00,22.2,22.4,00.0,31.0,24.3,15.2,0000.0,0003.11,0001.50,0000.72
2023-02-09 02:02:00,,0822.3,4.96,0.00,22.2,22.0,00.0,31.0,24.2,15.3,0000.0,0004.23,0001.49,0000.71
2023-02-09 02:03:00,,0822.4,4.94,0.00,22.2,21.7,00.0,31.0,24.1,15.3,0000.0,0004.27,0001.43,0000.70
2023-02-09 02:04:00,,0822.4,4.95,0.00,22.2,21.4,00.0,31.1,24.0,15.3,0000.0,0004.18,0001.40,0000.70
2023-02-09 02:05:00,,0822.4,4.98,0.00,22.2,21.2,00.0,31.1,24.0,15.3,0000.0,0004.04,0001.33,0000.69
2023-02-09 02:06:00,,0822.4,5.00,0.00,22.2,21.0,00.0,31.1,24.0,15.4,0000.0,0004.16,0001.37,0000.69
2023-02-09 02:07:00,,0822.4,4.99,0.00,22.2,20.9,00.0,31.1,23.9,15.5,0000.0,0003.94,0001.31,0000.69
2023-02-09 02:08:00,,0822.4,4.99,0.00,22.2,20.8,00.0,31.1,23.9,15.7,0000.0,0004.02,0001.29,0000.69
2023-02-09 02:09:00,,0822.4,5.02,0.00,22.2,20.7,00.0,31.1,23.8,15.8,0000.0,0003.90,0001.22,0000.69
2023-02-09 02:10:00,,0822.4,4.99,0.00,22.1,20.7,00.0,31.1,23.8,15.9,0000.0,0003.73,0001.13,0000.68
2023-02-09 02:11:00,,0822.4,4.99,0.00,22.1,20.6,00.0,31.0,23.8,16.0,0000.0,0004.25,0001.13,0000.67
2023-02-09 02:12:00,,0822.4,4.96,0.00,22.1,20.6,00.0,31.0,23.7,16.1,0000.0,0004.62,0001.14,0000.67
2023-02-09 02:13:00,,0822.4,4.97,0.00,22.1,20.5,00.0,31.0,23.7,16.2,0000.0,0003.39,0001.12,0000.68
2023-02-09 02:14:00,,0822.5,4.99,0.00,22.1,20.5,00.0,31.0,23.7,16.3,0000.0,0003.36,0001.14,0000.69
2023-02-09 02:15:00,,0822.6,4.99,0.00,22.0,20.5,00.0,31.0,23.7,16.3,0000.0,0003.45,0001.18,0000.70
2023-02-09 02:16:00,,0822.6,4.98,0.00,22.0,20.4,00.0,31.0,23.6,16.3,0000.0,0003.54,0001.22,0000.71
2023-02-09 02:17:00,,0822.6,4.97,0.00,22.0,20.4,00.0,31.0,23.6,16.3,0000.0,0003.49,0001.20,0000.72
2023-02-09 02:18:00,,0822.7,5.00,0.00,22.0,20.4,00.0,31.0,23.6,16.4,0000.0,0003.46,0001.20,0000.71
2023-02-09 02:19:00,,0822.7,4.99,0.00,21.9,20.4,00.0,31.0,23.5,16.4,0000.0,0003.34,0001.21,0000.71
2023-02-09 02:20:00,,0822.7,5.03,0.00,21.9,20.3,00.0,30.9,23.4,16.5,0000.0,0003.40,0001.22,0000.71
2023-02-09 02:21:00,,0822.7,5.03,0.00,21.9,20.3,00.0,30.9,23.4,16.4,0000.0,0003.59,0001.24,0000.71
2023-02-09 02:22:00,,0822.8,4.98,0.00,21.9,20.3,00.0,30.9,23.5,16.4,0000.0,0003.32,0001.30,0000.72
2023-02-09 02:23:00,,0822.8,4.99,0.00,21.9,20.3,00.0,30.9,23.5,16.4,0000.0,0002.91,0001.28,0000.71
2023-02-09 02:24:00,,0822.8,5.00,0.00,21.9,20.3,00.0,30.9,23.4,16.4,0000.0,0003.10,0001.29,0000.70
2023-02-09 02:25:00,,0823.0,5.00,0.00,21.9,20.5,00.0,30.9,23.6,16.3,0000.0,0003.10,0001.29,0000.69
2023-02-09 02:26:00,,0822.9,5.00,0.00,22.0,21.3,00.0,30.8,23.9,16.2,0000.0,0003.14,0001.29,0000.69
2023-02-09 02:27:00,,0823.0,5.01,0.00,22.1,22.4,00.0,30.8,24.2,16.1,0000.0,0003.05,0001.27,0000.68
2023-02-09 02:28:00,,0823.0,4.99,0.00,22.2,22.6,00.0,30.9,24.3,15.9,0000.0,0003.16,0001.30,0000.68
2023-02-09 02:29:00,,0823.0,5.01,0.00,22.2,22.2,00.0,30.9,24.2,15.6,0000.0,0003.24,0001.33,0000.69
2023-02-09 02:30:00,,0823.1,4.94,0.00,22.2,21.9,00.0,31.0,24.1,15.4,0000.0,0003.23,0001.32,0000.69
2023-02-09 02:31:00,,0823.2,5.06,0.00,22.3,21.6,00.0,31.0,24.1,15.5,0000.0,0003.09,0001.29,0000.70
2023-02-09 02:32:00,,0823.2,4.94,0.00,22.3,21.4,00.0,31.0,24.0,16.0,0000.0,0002.88,0001.26,0000.69
2023-02-09 02:33:00,,0823.2,5.00,0.00,22.3,21.2,00.0,31.0,24.0,16.4,0000.0,0003.21,0001.19,0000.68
2023-02-09 02:34:00,,0823.3,4.96,0.00,22.2,21.1,00.0,31.1,24.0,16.6,0000.0,0003.23,0001.21,0000.68
2023-02-09 02:35:00,,0823.3,5.00,0.00,22.2,21.0,00.0,31.1,23.9,16.4,0000.0,0003.84,0001.19,0000.68
2023-02-09 02:36:00,,0823.2,4.98,0.00,22.2,21.0,00.0,31.1,23.9,16.3,0000.0,0004.03,0001.20,0000.69
2023-02-09 02:37:00,,0823.2,5.04,0.00,22.2,20.9,00.0,31.1,24.0,16.5,0000.0,0004.05,0001.18,0000.69
2023-02-09 02:38:00,,0823.2,5.03,0.00,22.2,20.9,00.0,31.1,23.9,16.9,0000.0,0005.52,0001.22,0000.69
2023-02-09 02:39:00,,0823.1,5.02,0.00,22.2,20.8,00.0,31.1,23.9,17.4,0000.0,0005.81,0001.19,0000.69
2023-02-09 02:40:00,,0823.1,5.00,0.00,22.2,20.7,00.0,31.1,23.8,17.8,0000.0,0006.03,0001.19,0000.70
2023-02-09 02:41:00,,0823.1,5.00,0.00,22.1,20.6,00.0,31.0,23.7,18.2,0000.0,0006.30,0001.21,0000.70
2023-02-09 02:42:00,,0823.1,5.00,0.00,22.1,20.5,00.0,31.0,23.7,18.5,0000.0,0006.46,0001.23,0000.71
2023-02-09 02:43:00,,0823.1,5.01,0.00,22.1,20.5,00.0,31.0,23.6,18.7,0000.0,0006.50,0001.26,0000.72
2023-02-09 02:44:00,,0823.1,4.99,0.00,22.0,20.4,00.0,31.0,23.6,18.9,0000.0,0006.59,0001.26,0000.73
2023-02-09 02:45:00,,0823.1,4.98,0.00,22.0,20.4,00.0,31.0,23.6,18.9,0000.0,0006.52,0001.23,0000.74
2023-02-09 02:46:00,,0823.1,5.02,0.00,22.0,20.3,00.0,31.0,23.5,18.8,0000.0,0005.57,0001.23,0000.74
2023-02-09 02:47:00,,0823.1,5.02,0.00,22.0,20.3,00.0,31.0,23.5,18.7,0000.0,0005.49,0001.20,0000.72
2023-02-09 02:48:00,,0823.1,5.02,0.00,21.9,20.3,00.0,31.0,23.5,18.6,0000.0,0005.54,0001.20,0000.71
2023-02-09 02:49:00,,0823.0,5.00,0.00,21.9,20.3,00.0,31.0,23.5,18.6,0000.0,0004.11,0001.18,0000.70
2023-02-09 02:50:00,,0823.0,5.00,0.00,21.9,20.3,00.0,30.9,23.5,18.6,0000.0,0003.67,0001.15,0000.69
2023-02-09 02:51:00,,0823.0,4.95,0.00,21.9,20.7,00.0,30.9,23.7,18.5,0000.0,0003.40,0001.11,0000.67
2023-02-09 02:52:00,,0823.0,4.98,0.00,22.0,21.7,00.0,30.9,24.0,18.3,0000.0,0003.17,0001.08,0000.65
2023-02-09 02:53:00,,0822.9,4.99,0.00,22.1,22.5,00.0,30.9,24.2,18.1,0000.0,0003.02,0001.05,0000.64
2023-02-09 02:54:00,,0822.9,5.04,0.00,22.2,22.2,00.0,30.9,24.2,17.8,0000.0,0002.86,0001.01,0000.62
2023-02-09 02:55:00,,0822.8,4.95,0.00,22.2,21.7,00.0,31.0,24.1,17.6,0000.0,0002.15,0000.99,0000.61
2023-02-09 02:56:00,,0822.9,5.02,0.00,22.2,21.5,00.0,31.0,24.0,17.5,0000.0,0001.99,0000.97,0000.60
2023-02-09 02:57:00,,0822.9,4.97,0.00,22.2,21.3,00.0,31.0,24.0,17.5,0000.0,0001.97,0000.96,0000.60
2023-02-09 02:58:00,,0822.8,4.92,0.00,22.2,21.2,00.0,31.0,24.0,17.2,0000.0,0001.89,0000.97,0000.61
2023-02-09 02:59:00,,0822.8,4.96,0.00,22.2,21.1,00.0,31.1,24.0,17.1,0000.0,0001.70,0000.95,0000.60
